Weather History for Macon, GA

Change the Weather History Date:

Thursday, June 13, 2013

  Actual Average Record
Temperature  
Mean Temperature 81 °F 79 °F  
Max Temperature 93 °F 90 °F 103 °F (1977)
Min Temperature 69 °F 67 °F 51 °F (1903)
Degree Days  
Heating Degree Days 0 0  
Month to date heating degree days 0 0  
Since 1 June heating degree days 0 0  
Since 1 July heating degree days 2275 2322  
Cooling Degree Days 16 14  
Month to date cooling degree days 168 164  
Year to date cooling degree days 378 477  
Since 1 June cooling degree days 168 164  
Growing Degree Days 31 (Base 50)    
Moisture  
Dew Point 70 °F    
Average Humidity 71    
Maximum Humidity 100    
Minimum Humidity 41    
Precipitation  
Precipitation 0.23 in 0.12 in 2.89 in (1951)
Month to date precipitation 7.03 1.64  
Year to date precipitation 35.72 20.47  
Sea Level Pressure  
Sea Level Pressure 29.89 in    
Wind  
Wind Speed 9 mph (West)    
Max Wind Speed 25 mph    
Max Gust Speed 36 mph    
Visibility 8 miles    
Events Rain    
T = Trace of Precipitation, MM = Missing Value Source: NWS Daily Summary

Daily Weather History Graph

Daily Weather History Graph

Search for Another Location

Airport:

Trip Planner

Search our weather history database for the weather conditions in past years. The results will help you decide how hot, cold, wet, or windy it might be!

Date:

Astronomy

Jun. 13, 2013 Rise Set
Actual Time 6:26 AM EDT 8:43 PM EDT
Civil Twilight 5:57 AM EDT 9:11 PM EDT
Nautical Twilight 5:22 AM EDT 9:46 PM EDT
Astronomical Twilight 4:44 AM EDT 10:24 PM EDT
Moon 10:49 AM EDT (6/13) No Moon Set
Length of Visible Light 15h 14m
Length of Day
14h 17m
Waxing Crescent, 21% of the Moon is Illuminated
Jun 13
Waxing Crescent
Jun 16
First Quarter
Jun 23
Full
Jun 30
Last Quarter
Jul 8
New

Hourly Weather History & Observations

Time (EDT) Temp. Heat Index Dew Point Humidity Pressure Visibility Wind Dir Wind Speed Gust Speed Precip Events Conditions
12:53 AM 75.0 °F - 73.9 °F 96% 29.96 in 7.0 mi West 4.6 mph - N/A   Clear
1:53 AM 75.9 °F - 73.9 °F 94% 29.94 in 7.0 mi West 3.5 mph - 0.01 in   Clear
2:53 AM 73.9 °F - 73.0 °F 97% 29.94 in 7.0 mi SW 3.5 mph - N/A   Clear
3:53 AM 73.9 °F - 73.0 °F 97% 29.94 in 8.0 mi West 4.6 mph - N/A   Clear
4:53 AM 73.9 °F - 73.0 °F 97% 29.94 in 7.0 mi West 5.8 mph - N/A   Clear
5:53 AM 73.9 °F - 72.0 °F 93% 29.94 in 9.0 mi WNW 4.6 mph - N/A   Clear
6:53 AM 73.9 °F - 72.0 °F 93% 29.94 in 7.0 mi WNW 5.8 mph - N/A   Clear
7:53 AM 77.0 °F - 72.0 °F 84% 29.94 in 9.0 mi West 5.8 mph - N/A   Clear
8:53 AM 81.0 °F 85.8 °F 73.0 °F 77% 29.95 in 10.0 mi West 6.9 mph - N/A   Clear
9:53 AM 84.9 °F 90.7 °F 72.0 °F 65% 29.94 in 10.0 mi West 8.1 mph - N/A   Clear
10:53 AM 88.0 °F 94.7 °F 72.0 °F 59% 29.94 in 10.0 mi WNW 12.7 mph 20.7 mph N/A   Clear
11:53 AM 89.1 °F 95.0 °F 71.1 °F 55% 29.93 in 10.0 mi West 13.8 mph 19.6 mph N/A   Clear
12:53 PM 91.0 °F 97.6 °F 71.1 °F 52% 29.90 in 10.0 mi West 10.4 mph 19.6 mph N/A   Partly Cloudy
1:53 PM 91.9 °F 96.9 °F 69.1 °F 47% 29.88 in 10.0 mi West 16.1 mph 24.2 mph N/A   Clear
2:53 PM 93.0 °F 99.0 °F 70.0 °F 47% 29.86 in 10.0 mi West 13.8 mph 23.0 mph N/A   Clear
3:53 PM 93.0 °F 96.4 °F 66.9 °F 42% 29.84 in 10.0 mi West 18.4 mph 24.2 mph N/A   Clear
4:53 PM 93.0 °F 96.4 °F 66.9 °F 42% 29.81 in 10.0 mi WNW 17.3 mph 21.9 mph N/A   Clear
5:53 PM 91.9 °F 95.9 °F 68.0 °F 45% 29.79 in 10.0 mi WSW 11.5 mph 21.9 mph N/A   Clear
6:53 PM 91.0 °F 95.6 °F 69.1 °F 48% 29.79 in 10.0 mi West 10.4 mph - N/A   Clear
7:53 PM 89.1 °F 92.9 °F 68.0 °F 50% 29.79 in 10.0 mi West 10.4 mph - N/A   Clear
8:53 PM 84.0 °F 88.4 °F 70.0 °F 63% 29.81 in 10.0 mi WSW 5.8 mph - N/A   Clear
9:53 PM 84.0 °F 87.0 °F 68.0 °F 58% 29.82 in 10.0 mi WSW 6.9 mph - N/A   Scattered Clouds
10:25 PM 71.6 °F - 64.4 °F 78% 29.89 in 2.0 mi West 10.4 mph 35.7 mph 0.03 in Rain Heavy Rain
10:29 PM 69.8 °F - 64.4 °F 83% 29.91 in 1.2 mi North 8.1 mph 21.9 mph 0.10 in Rain Heavy Rain
10:35 PM 69.8 °F - 64.4 °F 83% 29.91 in 2.0 mi West 4.6 mph - 0.21 in Rain Rain
10:39 PM 69.8 °F - 64.4 °F 83% 29.92 in 6.0 mi West 8.1 mph - 0.21 in Rain Light Rain
10:53 PM 70.0 °F - 66.0 °F 87% 29.86 in 10.0 mi WSW 6.9 mph - 0.22 in Rain Light Rain
11:53 PM 69.1 °F - 66.0 °F 90% 29.83 in 10.0 mi WSW 6.9 mph - 0.00 in   Clear